SCP
0 0 0 0 0 0 0 0 0 0 0 0 0 0 0 0 0 0 0 -0 0 0 0 1 1 1 1 1 1 1 1 1 1 1 1 1 1 1 0 0 0 0 0 0 0 0 0 0 0
0 0 0 0 0 0 0 0 0 0 0 0 0 0 0 0 0 0 0 0 0 0 1 1 1 1 1 1 1 1 2 2 1 1 1 1 1 1 1 1 0 0 0 0 0 0 0 0 0
0 0 0 0 0 0 0 0 0 0 0 0 0 0 0 0 0 0 0 0 1 1 1 1 1 1 1 1 1 1 2 2 1 1 1 1 1 1 1 1 1 1 0 0 0 0 0 0 0
0 0 0 0 0 0 0 0 0 0 0 0 0 0 0 0 0 0 0 1 1 1 1 1 1 1 1 1 1 1 1 2 2 1 1 1 1 1 1 1 1 1 0 0 0 0 0 0 0
0 0 0 0 0 0 0 0 0 0 0 0 0 0 0 0 0 0 0 1 1 1 1 1 1 1 1 1 2 1 1 2 2 1 1 1 1 1 1 1 1 1 0 0 0 0 0 0 0
0 0 0 0 0 0 0 0 0 0 0 0 0 0 0 0 0 0 0 1 2 2 2 1 1 1 1 2 1 1 1 1 1 1 1 1 1 1 1 1 1 1 1 1 0 0 0 0 0
0 0 0 0 0 0 0 0 0 0 0 0 0 0 -0 0 0 0 0 0 0 1 2 2 1 1 1 1 1 1 1 1 1 1 1 1 1 1 1 1 1 1 1 0 0 0 0 0 0
0 0 0 0 0 0 0 0 0 0 0 0 0 0 0 -0 -0 -0 -0 0 0 1 2 2 1 1 1 1 1 1 1 1 1 1 1 1 1 1 1 0 0 0 0 0 0 0 0 0 0
0 0 0 0 0 0 0 0 0 0 0 0 0 0 0 0 0 0 -0 0 1 1 1 2 2 1 1 1 1 1 1 1 1 1 1 0 1 1 0 1 0 0 0 0 0 0 0 0 0
0 0 0 0 0 0 0 0 0 0 0 0 0 0 0 0 0 0 0 0 1 1 1 2 2 2 1 2 1 1 1 1 1 1 0 1 1 1 1 0 0 0 0 0 0 0 0 0 0
0 0 0 0 0 0 0 0 0 0 0 0 0 0 0 0 0 0 0 0 0 1 2 2 2 2 2 2 2 2 2 2 1 1 1 1 0 0 0 0 0 0 0 0 0 0 0 0 0
0 0 0 0 0 0 0 0 0 0 0 0 0 0 0 0 0 0 0 0 0 0 1 1 2 2 2 2 2 2 1 1 1 1 0 0 0 0 0 0 0 0 0 0 0 0 0 0 0
-0 0 0 0 0 0 0 0 0 0 0 -0 -0 -0 0 0 0 0 -0 0 0 0 0 1 2 2 2 2 2 2 1 0 0 0 0 0 0 0 0 0 0 0 0 0 0 0 0 0 0
0 0 -0 0 0 0 0 0 0 0 0 -0 -0 -0 0 0 0 0 -0 0 0 0 0 0 1 2 2 2 2 1 1 0 0 0 0 0 0 0 0 0 0 0 0 0 0 0 0 0 0
0 0 0 0 0 0 0 0 0 0 0 0 -0 -0 -0 -0 -0 -0 -0 -0 -0 0 0 0 0 2 2 2 1 1 0 0 0 0 0 0 0 0 0 0 0 0 0 0 0 0 0 0 0
0 0 0 0 0 0 0 0 0 0 0 0 0 -0 -0 -0 -0 0 -0 -0 -0 -0 0 1 1 1 2 2 2 1 0 0 0 0 0 0 0 0 0 0 0 0 0 0 0 0 0 0 0
0 0 0 0 0 0 0 0 0 0 0 0 0 -0 0 -0 -0 -0 0 -0 -0 -0 0 0 1 1 2 2 1 1 0 0 0 0 0 0 0 0 0 0 0 0 0 0 0 0 0 0 0
0 0 0 0 -0 0 0 0 0 -0 0 0 0 0 0 0 -0 -0 -0 0 0 -0 0 0 0 1 2 2 2 1 0 0 0 0 0 0 0 0 0 0 0 0 0 0 0 0 0 0 0
0 0 0 -0 -0 0 0 0 -0 -0 0 0 0 0 0 -0 -0 0 0 -0 -0 0 0 0 0 0 2 2 1 1 0 0 0 0 0 0 0 0 0 0 0 0 0 0 0 0 0 0 0
0 0 0 -0 -0 0 -0 -0 -0 -0 0 0 0 0 0 0 -0 -0 0 0 -0 0 0 0 0 0 1 1 1 1 1 0 0 0 0 0 0 0 0 0 0 0 0 0 0 0 0 0 0
0 0 0 0 -0 -0 0 0 0 -0 0 0 0 0 0 0 0 0 0 0 0 -0 0 0 0 0 1 1 2 0 0 0 0 0 0 0 0 0 0 0 0 0 0 0 0 0 0 0 0
0 0 0 -0 0 0 0 0 0 0 0 0 0 0 0 0 0 0 0 0 0 0 0 0 0 0 1 1 1 1 0 0 0 0 0 0 0 0 0 0 0 0 0 0 0 0 0 0 0
0 -0 -0 0 0 0 0 0 0 0 0 0 0 0 0 -0 0 0 0 0 0 0 0 0 0 0 1 1 1 1 0 0 0 0 0 0 0 0 0 0 0 0 0 0 0 0 0 0 0
0 -0 -0 0 0 0 0 0 0 0 -0 -0 -0 0 0 0 0 0 0 0 0 0 0 0 0 0 1 1 1 1 1 0 0 0 0 0 0 0 0 0 0 0 0 0 0 0 0 0 0
0 0 0 0 0 0 0 0 0 0 0 0 -0 0 0 0 0 0 0 0 0 0 0 0 0 0 1 1 1 1 1 0 0 0 0 0 0 0 0 0 0 0 0 0 0 0 0 0 0
0 0 0 0 0 0 0 0 0 0 0 -0 0 0 0 0 0 0 0 0 0 0 0 0 0 0 0 1 1 1 1 1 0 0 0 0 0 0 0 0 0 0 0 0 0 0 0 0 0
0 0 0 0 0 0 0 0 0 -0 -0 0 0 0 0 -0 -0 -0 0 0 0 0 0 0 0 0 0 0 0 1 1 1 0 0 0 0 0 0 0 0 0 0 0 0 0 0 0 0 0
0 0 0 0 0 0 0 0 0 -0 -0 -0 0 0 -0 -0 -0 -0 0 0 0 0 0 0 0 0 0 0 0 0 0 0 0 0 0 0 0 0 0 0 0 0 0 0 0 0 0 0 0
0 0 0 0 0 0 0 0 0 -0 -0 -0 0 -0 -0 -0 -0 -0 0 0 0 0 0 0 0 0 0 0 0 0 0 0 0 0 0 0 0 0 0 0 0 0 0 0 0 0 0 0 0
0 0 0 0 0 0 0 0 0 0 0 0 0 -0 -0 -0 -0 -0 -0 0 0 0 0 0 0 0 0 0 0 0 0 0 0 0 0 0 0 0 0 0 0 0 0 0 0 0 0 0 0
Wind_Speed_500mb
9 10 16 15 4 6 10 16 6 8 9 43 18 15 27 55 11 11 11 17 19 27 43 58 64 63 63 67 72 75 77 78 80 77 71 64 58 55 53 51 46 43 42 41 40 37 35 31 30
8 11 18 7 7 4 20 13 21 43 39 14 30 30 9 17 59 53 56 52 32 21 31 57 61 65 67 72 76 77 79 79 79 78 73 66 62 59 55 53 50 47 46 43 40 40 37 34 34
9 19 10 8 9 25 32 21 37 44 38 30 13 15 17 12 46 52 57 46 48 29 28 41 50 58 68 74 78 79 80 80 78 77 74 70 65 61 58 54 52 51 48 47 43 41 40 39 37
9 10 3 6 33 45 50 16 11 7 40 41 37 20 39 65 44 33 42 48 48 39 33 38 39 51 62 72 78 81 80 79 78 77 75 71 66 64 61 57 55 54 51 50 42 42 43 43 42
15 6 5 10 47 44 31 42 37 14 8 10 20 19 29 59 43 59 52 54 54 51 48 44 47 43 58 69 78 83 82 80 78 79 78 75 71 66 63 60 59 56 52 49 45 44 44 43 44
7 5 5 30 47 55 41 60 16 23 33 51 23 31 59 69 57 55 53 54 59 54 55 53 54 50 53 67 78 84 84 82 80 79 79 78 75 71 67 64 63 58 55 54 48 46 48 50 50
7 5 27 23 49 48 63 18 31 23 37 55 35 20 49 50 50 57 57 51 62 57 49 52 57 56 54 64 78 85 87 86 83 81 81 80 78 75 72 70 67 62 61 55 48 50 51 52 50
7 4 12 28 48 61 41 42 35 29 28 46 58 20 39 47 47 57 56 53 68 64 63 56 54 54 54 62 76 85 88 89 87 84 83 83 79 76 74 72 68 64 64 55 51 53 55 54 52
13 10 26 56 35 42 58 39 58 58 66 55 63 66 56 59 61 51 49 46 67 68 68 67 59 57 58 62 75 84 87 89 88 86 84 83 81 78 75 76 70 67 65 57 56 59 59 56 52
6 12 41 27 28 33 54 51 41 39 54 71 58 91 85 65 58 60 54 47 66 75 73 73 68 64 65 68 76 84 87 89 88 88 87 85 85 84 81 77 73 72 70 60 60 62 59 55 51
7 20 21 42 52 55 56 68 48 40 49 56 44 66 58 60 78 81 81 61 47 69 73 73 74 67 64 73 78 88 90 90 91 92 92 92 91 89 86 82 79 75 66 66 68 66 61 56 51
10 20 30 43 55 55 44 68 59 56 82 65 71 86 102 71 73 70 84 84 61 45 67 63 70 75 71 69 80 88 96 95 95 96 96 99 99 98 96 91 81 72 68 71 67 65 60 56 49
28 21 39 50 56 59 64 52 64 75 85 77 80 83 86 95 82 80 73 85 81 67 53 66 72 75 79 73 77 91 95 98 98 100 100 101 100 101 96 91 82 80 72 68 66 63 58 55 50
20 28 41 48 58 56 47 52 63 87 91 80 70 84 94 94 89 90 80 75 82 84 64 58 74 78 77 80 76 91 96 99 104 102 104 101 97 108 99 89 74 78 66 65 63 61 56 53 49
37 18 38 49 45 39 63 42 54 82 83 72 65 73 75 77 79 75 86 79 79 89 79 58 71 80 78 82 84 87 96 105 106 105 102 100 87 83 82 64 68 67 68 61 61 58 55 52 51
7 7 10 33 6 25 14 40 51 84 82 69 67 64 73 76 79 83 79 80 68 71 73 68 55 83 85 88 90 95 91 102 102 101 99 102 98 95 78 71 86 81 83 81 76 64 57 55 51
7 13 32 38 32 22 16 40 51 77 73 66 63 59 63 66 71 83 97 84 77 61 64 68 63 72 86 87 89 90 90 93 99 100 94 91 78 84 78 98 97 90 85 79 75 72 71 61 53
24 30 36 43 57 44 44 49 62 76 69 70 75 70 72 74 80 76 72 91 88 78 56 57 66 62 80 83 84 82 86 88 92 97 88 89 81 67 71 67 84 89 85 80 76 71 65 57 59
28 29 42 59 51 37 45 49 59 53 52 50 68 68 70 75 75 79 78 74 95 83 73 60 64 48 74 79 83 77 82 83 89 92 86 90 93 79 76 79 87 90 83 81 77 72 65 62 58
34 34 51 55 34 20 52 64 56 55 52 53 60 62 63 69 75 65 73 76 76 87 85 70 60 73 65 79 79 80 77 82 86 88 86 79 85 92 97 88 80 80 83 81 80 78 75 67 65
42 24 39 40 58 39 34 43 33 35 28 40 50 60 61 61 65 78 84 79 76 71 87 79 64 58 63 75 79 82 81 83 79 90 90 85 87 91 86 82 86 94 86 86 83 79 77 78 72
33 11 27 43 30 27 15 30 36 19 17 29 29 44 46 60 72 80 81 81 79 70 72 75 72 56 61 68 75 81 80 80 80 85 85 93 95 89 82 77 72 75 84 85 84 81 79 75 74
24 23 30 39 35 29 10 13 10 18 18 34 33 48 60 56 55 71 78 78 78 70 65 62 65 65 53 64 75 71 75 71 62 62 69 79 83 87 92 88 80 73 77 85 84 81 78 77 73
28 17 32 4 5 2 15 11 2 8 20 27 31 48 57 58 54 38 50 68 68 69 59 54 50 50 56 60 75 75 70 68 60 59 62 72 78 77 86 90 90 82 78 76 81 79 78 76 73
16 12 9 10 8 11 19 23 9 16 21 24 34 46 54 59 49 39 30 33 47 48 57 51 49 55 47 60 73 80 75 71 68 64 65 68 77 78 84 87 86 85 79 73 67 76 80 80 78
4 9 6 13 11 34 24 8 7 15 13 29 37 44 50 56 61 34 29 19 14 26 34 46 48 46 47 62 69 79 77 71 71 66 68 67 74 72 80 86 92 87 82 79 76 73 71 75 77
12 1 8 10 2 5 7 5 8 31 33 29 30 43 47 55 61 48 25 21 7 13 20 30 35 39 50 62 65 76 75 71 67 57 57 46 52 58 53 66 72 88 98 85 83 81 75 72 68
11 3 7 5 11 12 10 8 8 31 36 36 34 31 49 54 60 55 30 17 13 17 20 22 26 34 48 61 63 70 67 56 48 50 56 55 58 63 66 76 63 66 75 103 89 85 80 76 73
7 4 7 7 5 6 10 9 6 17 26 30 30 43 48 50 56 50 36 26 18 25 26 32 30 33 37 47 56 62 58 56 56 50 54 56 58 60 58 54 56 64 87 104 72 91 85 83 77
10 7 4 6 9 8 6 11 3 11 19 24 29 42 46 48 53 44 40 35 35 32 35 32 28 22 27 28 39 42 44 43 41 44 47 43 49 50 58 45 47 51 55 74 67 100 94 88 83
Wind_Direction_500mb
281 225 183 161 72 54 247 237 213 216 230 226 180 177 201 217 188 208 319 356 298 254 232 222 207 208 201 199 197 194 191 189 189 191 190 189 189 189 188 187 188 188 187 184 181 176 171 168 164
286 198 171 151 129 208 251 205 216 224 212 33 222 229 252 245 234 252 276 283 286 241 240 214 208 208 203 202 200 196 193 191 190 191 192 192 191 192 191 192 189 190 187 186 183 176 171 170 168
260 185 171 150 190 227 247 206 227 238 247 257 291 249 257 238 262 259 264 273 257 240 212 216 217 215 208 206 202 199 195 193 193 192 191 190 190 190 191 193 189 189 185 184 177 177 172 172 173
217 189 246 180 230 241 236 226 222 283 261 243 245 275 252 257 255 274 290 255 239 232 206 210 215 218 214 211 205 202 199 196 195 194 192 191 190 191 192 191 192 189 188 188 185 182 177 176 176
197 170 216 238 245 254 240 253 253 244 252 200 187 250 255 256 256 285 300 250 240 230 230 225 211 215 216 212 207 205 202 200 198 197 195 194 192 194 193 192 194 191 192 189 184 182 179 180 179
212 169 195 233 242 245 255 247 262 246 268 273 276 290 273 277 286 292 290 258 243 230 226 221 214 213 216 215 210 207 205 204 202 199 199 197 195 194 195 196 194 194 194 188 186 183 181 180 178
168 133 235 251 250 261 252 265 242 264 265 260 265 280 278 275 288 288 297 273 237 223 221 219 217 215 216 217 212 208 207 206 205 202 201 201 199 196 196 198 196 196 191 188 188 183 181 179 179
209 183 259 245 247 255 277 279 283 301 278 287 260 251 257 270 282 292 286 270 242 229 220 215 216 219 221 217 214 210 209 208 206 205 203 202 203 200 196 201 198 197 193 190 187 184 180 181 183
251 242 250 246 252 270 299 304 296 296 284 289 271 271 283 290 297 297 290 274 242 237 230 216 218 222 222 220 213 211 210 209 209 207 206 205 202 201 200 200 201 198 195 191 188 185 183 183 184
208 228 246 283 292 294 306 306 321 312 304 282 283 278 285 290 282 293 292 293 241 238 235 223 220 223 217 216 212 209 210 210 210 209 207 207 203 201 201 202 203 199 197 187 187 186 184 186 189
256 248 303 296 304 304 300 296 307 301 280 280 317 308 302 304 287 282 284 282 282 243 243 234 226 226 221 214 213 209 210 210 210 210 209 207 205 201 201 201 200 201 198 185 185 186 185 190 191
295 277 275 278 286 288 283 293 286 279 274 292 291 293 296 296 289 293 281 281 275 259 250 247 242 230 222 215 218 211 211 210 210 211 211 210 206 201 200 198 200 201 199 190 186 185 185 189 193
244 254 256 270 277 279 286 279 279 276 283 284 281 282 278 284 288 281 284 281 278 271 257 246 242 237 227 219 220 214 216 215 211 212 212 213 210 206 201 196 201 201 191 188 187 190 190 194 197
251 267 275 274 270 274 271 272 280 285 288 282 276 273 272 275 279 280 276 276 273 269 264 256 244 239 234 228 222 218 219 218 216 213 214 213 213 206 203 201 205 189 187 188 194 194 195 196 197
256 280 290 274 266 259 269 280 271 276 279 278 275 270 269 266 267 269 272 274 272 270 264 274 243 240 235 232 230 225 228 222 222 218 215 213 209 211 208 193 189 187 187 189 196 197 196 195 194
256 262 276 285 172 264 219 268 266 266 267 266 268 268 273 270 258 259 268 267 268 267 267 263 258 237 234 231 232 234 230 233 227 222 219 210 210 210 198 195 198 196 191 192 194 195 198 195 197
236 275 286 296 288 269 256 276 272 271 267 271 265 257 263 273 272 255 255 263 266 264 258 264 268 236 234 235 233 232 233 233 233 226 219 215 205 209 211 202 199 191 190 191 194 194 197 192 195
291 294 290 281 289 301 280 277 270 271 268 268 269 264 264 260 264 263 254 252 262 260 261 255 259 241 233 231 230 232 232 231 232 230 220 204 195 193 204 212 195 191 191 192 194 195 193 195 195
266 274 276 281 288 285 285 283 275 276 270 264 262 259 255 253 260 261 255 249 251 257 256 250 247 245 231 228 225 218 222 223 229 232 224 208 199 195 198 208 197 194 196 197 195 195 197 191 195
271 275 280 287 284 299 298 284 284 282 273 266 263 260 253 254 255 255 258 259 248 250 255 254 252 245 242 230 224 217 217 224 227 233 222 215 208 200 200 203 199 203 198 199 199 199 193 198 197
283 267 278 276 305 301 285 282 281 289 276 270 270 271 263 252 255 260 261 258 255 245 250 254 247 244 241 231 227 221 223 223 214 217 220 211 218 217 205 207 208 204 204 203 203 203 204 200 198
283 232 280 295 303 296 0 290 309 301 25 13 349 341 320 317 269 254 253 255 258 252 240 249 248 245 234 229 223 223 220 212 210 215 227 215 212 215 207 206 210 207 205 206 206 206 208 211 206
264 295 281 280 275 285 281 236 291 28 355 345 333 328 327 319 316 255 251 257 254 250 247 242 243 244 236 224 223 226 225 221 218 223 231 231 226 217 209 207 208 212 211 209 208 208 211 213 215
287 314 306 7 101 7 255 209 282 14 334 325 326 327 329 333 324 302 262 258 256 246 248 247 236 233 235 225 222 225 225 227 224 230 234 238 234 231 218 212 210 212 211 213 213 213 213 217 222
40 22 326 340 351 239 308 301 299 1 348 330 327 326 331 337 334 331 314 252 238 235 235 239 229 229 232 224 221 225 223 222 226 230 234 233 227 225 237 219 220 214 213 215 218 219 219 220 221
289 153 270 305 312 300 312 244 170 43 3 342 332 329 333 339 339 335 334 329 230 205 212 226 226 224 231 225 217 215 223 225 227 226 224 231 245 238 236 237 219 219 218 217 218 220 225 225 227
280 224 227 267 294 355 275 273 182 351 354 350 341 338 338 339 340 345 343 345 349 159 175 198 208 215 219 215 213 215 218 221 225 229 226 230 221 233 241 232 240 230 222 221 220 221 222 228 233
173 324 285 357 311 301 286 287 281 333 339 341 342 342 339 341 349 358 3 13 43 93 119 155 163 177 199 205 209 208 209 216 228 237 235 232 234 238 236 230 234 230 244 235 219 226 222 224 229
340 271 239 252 229 281 306 281 264 324 334 334 338 342 340 344 355 2 9 44 63 84 98 117 139 140 154 174 187 196 204 213 223 235 240 241 243 250 243 240 239 242 237 237 241 230 227 230 227
173 242 261 248 292 238 269 280 344 347 340 341 339 344 347 356 7 12 16 38 70 74 81 95 102 136 136 143 173 189 199 210 212 222 234 240 241 245 247 241 241 241 244 244 236 235 234 228 229
Wind_Speed_850mb
9 10 16 15 4 6 10 16 6 8 9 43 18 15 27 55 11 11 11 17 19 27 43 58 64 63 63 67 72 75 77 78 80 77 71 64 58 55 53 51 46 43 42 41 40 37 35 31 30
8 11 18 7 7 4 20 13 21 43 39 14 30 30 9 17 59 53 56 52 32 21 31 57 61 65 67 72 76 77 79 79 79 78 73 66 62 59 55 53 50 47 46 43 40 40 37 34 34
9 19 10 8 9 25 32 21 37 44 38 30 13 15 17 12 46 52 57 46 48 29 28 41 50 58 68 74 78 79 80 80 78 77 74 70 65 61 58 54 52 51 48 47 43 41 40 39 37
9 10 3 6 33 45 50 16 11 7 40 41 37 20 39 65 44 33 42 48 48 39 33 38 39 51 62 72 78 81 80 79 78 77 75 71 66 64 61 57 55 54 51 50 42 42 43 43 42
15 6 5 10 47 44 31 42 37 14 8 10 20 19 29 59 43 59 52 54 54 51 48 44 47 43 58 69 78 83 82 80 78 79 78 75 71 66 63 60 59 56 52 49 45 44 44 43 44
7 5 5 30 47 55 41 60 16 23 33 51 23 31 59 69 57 55 53 54 59 54 55 53 54 50 53 67 78 84 84 82 80 79 79 78 75 71 67 64 63 58 55 54 48 46 48 50 50
7 5 27 23 49 48 63 18 31 23 37 55 35 20 49 50 50 57 57 51 62 57 49 52 57 56 54 64 78 85 87 86 83 81 81 80 78 75 72 70 67 62 61 55 48 50 51 52 50
7 4 12 28 48 61 41 42 35 29 28 46 58 20 39 47 47 57 56 53 68 64 63 56 54 54 54 62 76 85 88 89 87 84 83 83 79 76 74 72 68 64 64 55 51 53 55 54 52
13 10 26 56 35 42 58 39 58 58 66 55 63 66 56 59 61 51 49 46 67 68 68 67 59 57 58 62 75 84 87 89 88 86 84 83 81 78 75 76 70 67 65 57 56 59 59 56 52
6 12 41 27 28 33 54 51 41 39 54 71 58 91 85 65 58 60 54 47 66 75 73 73 68 64 65 68 76 84 87 89 88 88 87 85 85 84 81 77 73 72 70 60 60 62 59 55 51
7 20 21 42 52 55 56 68 48 40 49 56 44 66 58 60 78 81 81 61 47 69 73 73 74 67 64 73 78 88 90 90 91 92 92 92 91 89 86 82 79 75 66 66 68 66 61 56 51
10 20 30 43 55 55 44 68 59 56 82 65 71 86 102 71 73 70 84 84 61 45 67 63 70 75 71 69 80 88 96 95 95 96 96 99 99 98 96 91 81 72 68 71 67 65 60 56 49
28 21 39 50 56 59 64 52 64 75 85 77 80 83 86 95 82 80 73 85 81 67 53 66 72 75 79 73 77 91 95 98 98 100 100 101 100 101 96 91 82 80 72 68 66 63 58 55 50
20 28 41 48 58 56 47 52 63 87 91 80 70 84 94 94 89 90 80 75 82 84 64 58 74 78 77 80 76 91 96 99 104 102 104 101 97 108 99 89 74 78 66 65 63 61 56 53 49
37 18 38 49 45 39 63 42 54 82 83 72 65 73 75 77 79 75 86 79 79 89 79 58 71 80 78 82 84 87 96 105 106 105 102 100 87 83 82 64 68 67 68 61 61 58 55 52 51
7 7 10 33 6 25 14 40 51 84 82 69 67 64 73 76 79 83 79 80 68 71 73 68 55 83 85 88 90 95 91 102 102 101 99 102 98 95 78 71 86 81 83 81 76 64 57 55 51
7 13 32 38 32 22 16 40 51 77 73 66 63 59 63 66 71 83 97 84 77 61 64 68 63 72 86 87 89 90 90 93 99 100 94 91 78 84 78 98 97 90 85 79 75 72 71 61 53
24 30 36 43 57 44 44 49 62 76 69 70 75 70 72 74 80 76 72 91 88 78 56 57 66 62 80 83 84 82 86 88 92 97 88 89 81 67 71 67 84 89 85 80 76 71 65 57 59
28 29 42 59 51 37 45 49 59 53 52 50 68 68 70 75 75 79 78 74 95 83 73 60 64 48 74 79 83 77 82 83 89 92 86 90 93 79 76 79 87 90 83 81 77 72 65 62 58
34 34 51 55 34 20 52 64 56 55 52 53 60 62 63 69 75 65 73 76 76 87 85 70 60 73 65 79 79 80 77 82 86 88 86 79 85 92 97 88 80 80 83 81 80 78 75 67 65
42 24 39 40 58 39 34 43 33 35 28 40 50 60 61 61 65 78 84 79 76 71 87 79 64 58 63 75 79 82 81 83 79 90 90 85 87 91 86 82 86 94 86 86 83 79 77 78 72
33 11 27 43 30 27 15 30 36 19 17 29 29 44 46 60 72 80 81 81 79 70 72 75 72 56 61 68 75 81 80 80 80 85 85 93 95 89 82 77 72 75 84 85 84 81 79 75 74
24 23 30 39 35 29 10 13 10 18 18 34 33 48 60 56 55 71 78 78 78 70 65 62 65 65 53 64 75 71 75 71 62 62 69 79 83 87 92 88 80 73 77 85 84 81 78 77 73
28 17 32 4 5 2 15 11 2 8 20 27 31 48 57 58 54 38 50 68 68 69 59 54 50 50 56 60 75 75 70 68 60 59 62 72 78 77 86 90 90 82 78 76 81 79 78 76 73
16 12 9 10 8 11 19 23 9 16 21 24 34 46 54 59 49 39 30 33 47 48 57 51 49 55 47 60 73 80 75 71 68 64 65 68 77 78 84 87 86 85 79 73 67 76 80 80 78
4 9 6 13 11 34 24 8 7 15 13 29 37 44 50 56 61 34 29 19 14 26 34 46 48 46 47 62 69 79 77 71 71 66 68 67 74 72 80 86 92 87 82 79 76 73 71 75 77
12 1 8 10 2 5 7 5 8 31 33 29 30 43 47 55 61 48 25 21 7 13 20 30 35 39 50 62 65 76 75 71 67 57 57 46 52 58 53 66 72 88 98 85 83 81 75 72 68
11 3 7 5 11 12 10 8 8 31 36 36 34 31 49 54 60 55 30 17 13 17 20 22 26 34 48 61 63 70 67 56 48 50 56 55 58 63 66 76 63 66 75 103 89 85 80 76 73
7 4 7 7 5 6 10 9 6 17 26 30 30 43 48 50 56 50 36 26 18 25 26 32 30 33 37 47 56 62 58 56 56 50 54 56 58 60 58 54 56 64 87 104 72 91 85 83 77
10 7 4 6 9 8 6 11 3 11 19 24 29 42 46 48 53 44 40 35 35 32 35 32 28 22 27 28 39 42 44 43 41 44 47 43 49 50 58 45 47 51 55 74 67 100 94 88 83
Wind_Direction_850mb
281 225 183 161 72 54 247 237 213 216 230 226 180 177 201 217 188 208 319 356 298 254 232 222 207 208 201 199 197 194 191 189 189 191 190 189 189 189 188 187 188 188 187 184 181 176 171 168 164
286 198 171 151 129 208 251 205 216 224 212 33 222 229 252 245 234 252 276 283 286 241 240 214 208 208 203 202 200 196 193 191 190 191 192 192 191 192 191 192 189 190 187 186 183 176 171 170 168
260 185 171 150 190 227 247 206 227 238 247 257 291 249 257 238 262 259 264 273 257 240 212 216 217 215 208 206 202 199 195 193 193 192 191 190 190 190 191 193 189 189 185 184 177 177 172 172 173
217 189 246 180 230 241 236 226 222 283 261 243 245 275 252 257 255 274 290 255 239 232 206 210 215 218 214 211 205 202 199 196 195 194 192 191 190 191 192 191 192 189 188 188 185 182 177 176 176
197 170 216 238 245 254 240 253 253 244 252 200 187 250 255 256 256 285 300 250 240 230 230 225 211 215 216 212 207 205 202 200 198 197 195 194 192 194 193 192 194 191 192 189 184 182 179 180 179
212 169 195 233 242 245 255 247 262 246 268 273 276 290 273 277 286 292 290 258 243 230 226 221 214 213 216 215 210 207 205 204 202 199 199 197 195 194 195 196 194 194 194 188 186 183 181 180 178
168 133 235 251 250 261 252 265 242 264 265 260 265 280 278 275 288 288 297 273 237 223 221 219 217 215 216 217 212 208 207 206 205 202 201 201 199 196 196 198 196 196 191 188 188 183 181 179 179
209 183 259 245 247 255 277 279 283 301 278 287 260 251 257 270 282 292 286 270 242 229 220 215 216 219 221 217 214 210 209 208 206 205 203 202 203 200 196 201 198 197 193 190 187 184 180 181 183
251 242 250 246 252 270 299 304 296 296 284 289 271 271 283 290 297 297 290 274 242 237 230 216 218 222 222 220 213 211 210 209 209 207 206 205 202 201 200 200 201 198 195 191 188 185 183 183 184
208 228 246 283 292 294 306 306 321 312 304 282 283 278 285 290 282 293 292 293 241 238 235 223 220 223 217 216 212 209 210 210 210 209 207 207 203 201 201 202 203 199 197 187 187 186 184 186 189
256 248 303 296 304 304 300 296 307 301 280 280 317 308 302 304 287 282 284 282 282 243 243 234 226 226 221 214 213 209 210 210 210 210 209 207 205 201 201 201 200 201 198 185 185 186 185 190 191
295 277 275 278 286 288 283 293 286 279 274 292 291 293 296 296 289 293 281 281 275 259 250 247 242 230 222 215 218 211 211 210 210 211 211 210 206 201 200 198 200 201 199 190 186 185 185 189 193
244 254 256 270 277 279 286 279 279 276 283 284 281 282 278 284 288 281 284 281 278 271 257 246 242 237 227 219 220 214 216 215 211 212 212 213 210 206 201 196 201 201 191 188 187 190 190 194 197
251 267 275 274 270 274 271 272 280 285 288 282 276 273 272 275 279 280 276 276 273 269 264 256 244 239 234 228 222 218 219 218 216 213 214 213 213 206 203 201 205 189 187 188 194 194 195 196 197
256 280 290 274 266 259 269 280 271 276 279 278 275 270 269 266 267 269 272 274 272 270 264 274 243 240 235 232 230 225 228 222 222 218 215 213 209 211 208 193 189 187 187 189 196 197 196 195 194
256 262 276 285 172 264 219 268 266 266 267 266 268 268 273 270 258 259 268 267 268 267 267 263 258 237 234 231 232 234 230 233 227 222 219 210 210 210 198 195 198 196 191 192 194 195 198 195 197
236 275 286 296 288 269 256 276 272 271 267 271 265 257 263 273 272 255 255 263 266 264 258 264 268 236 234 235 233 232 233 233 233 226 219 215 205 209 211 202 199 191 190 191 194 194 197 192 195
291 294 290 281 289 301 280 277 270 271 268 268 269 264 264 260 264 263 254 252 262 260 261 255 259 241 233 231 230 232 232 231 232 230 220 204 195 193 204 212 195 191 191 192 194 195 193 195 195
266 274 276 281 288 285 285 283 275 276 270 264 262 259 255 253 260 261 255 249 251 257 256 250 247 245 231 228 225 218 222 223 229 232 224 208 199 195 198 208 197 194 196 197 195 195 197 191 195
271 275 280 287 284 299 298 284 284 282 273 266 263 260 253 254 255 255 258 259 248 250 255 254 252 245 242 230 224 217 217 224 227 233 222 215 208 200 200 203 199 203 198 199 199 199 193 198 197
283 267 278 276 305 301 285 282 281 289 276 270 270 271 263 252 255 260 261 258 255 245 250 254 247 244 241 231 227 221 223 223 214 217 220 211 218 217 205 207 208 204 204 203 203 203 204 200 198
283 232 280 295 303 296 0 290 309 301 25 13 349 341 320 317 269 254 253 255 258 252 240 249 248 245 234 229 223 223 220 212 210 215 227 215 212 215 207 206 210 207 205 206 206 206 208 211 206
264 295 281 280 275 285 281 236 291 28 355 345 333 328 327 319 316 255 251 257 254 250 247 242 243 244 236 224 223 226 225 221 218 223 231 231 226 217 209 207 208 212 211 209 208 208 211 213 215
287 314 306 7 101 7 255 209 282 14 334 325 326 327 329 333 324 302 262 258 256 246 248 247 236 233 235 225 222 225 225 227 224 230 234 238 234 231 218 212 210 212 211 213 213 213 213 217 222
40 22 326 340 351 239 308 301 299 1 348 330 327 326 331 337 334 331 314 252 238 235 235 239 229 229 232 224 221 225 223 222 226 230 234 233 227 225 237 219 220 214 213 215 218 219 219 220 221
289 153 270 305 312 300 312 244 170 43 3 342 332 329 333 339 339 335 334 329 230 205 212 226 226 224 231 225 217 215 223 225 227 226 224 231 245 238 236 237 219 219 218 217 218 220 225 225 227
280 224 227 267 294 355 275 273 182 351 354 350 341 338 338 339 340 345 343 345 349 159 175 198 208 215 219 215 213 215 218 221 225 229 226 230 221 233 241 232 240 230 222 221 220 221 222 228 233
173 324 285 357 311 301 286 287 281 333 339 341 342 342 339 341 349 358 3 13 43 93 119 155 163 177 199 205 209 208 209 216 228 237 235 232 234 238 236 230 234 230 244 235 219 226 222 224 229
340 271 239 252 229 281 306 281 264 324 334 334 338 342 340 344 355 2 9 44 63 84 98 117 139 140 154 174 187 196 204 213 223 235 240 241 243 250 243 240 239 242 237 237 241 230 227 230 227
173 242 261 248 292 238 269 280 344 347 340 341 339 344 347 356 7 12 16 38 70 74 81 95 102 136 136 143 173 189 199 210 212 222 234 240 241 245 247 241 241 241 244 244 236 235 234 228 229